カタログに戻る

DELTA 1 DEB

運用中LEO
NORAD 3127·DEBRIS·🇺🇸 United States

打ち上げ Jan 11, 1968 から Vandenberg Space Force Base

Loading…

次のパス (今後24時間)

TLE

最新Source: Space-Track

元期: Sep 14, 2026, 05:56 UTC

1 03127U 68002D   26257.24769367 -.00000066  00000-0  19608-4 0  9996
2 03127 105.3355  78.0704 0321070 155.1572  21.5076 12.84897535750401

AllMySatでDELTA 1 DEBをリアルタイム追跡

Download on the App Store